[[{"header":{"parameterUnit":"m.s-1","parameterCategory":2,"la1":30.2991,"la2":30.254,"lo1":-89.0895,"lo2":-89.0444,"dy":0.0017,"dx":0.0017,"nx":28,"ny":28,"refTime":"2025-05-26T03:00:00:Z","depth":"0","parameterNumber":2,"parameterNumberName":"U-component_of_CURRENTS"},"data":[0,0,0,0,0,0,0,0,0,0,0,0,0,0,0,0,0,0,0,0,0,0,0,0,0,0,0,0,0,0,0,0,0,0,0,0,0,0,0,0,0,0,0,0,0,0,0,0,0,0,0,0,0,0,0,0,0,0,0.3444,0.3444,0,0.3452,0.3452,0.3452,0.3428,0.3427,0.3427,0.3426,0.3459,0.346,0.3461,0,0,0,0,0,0,0,0,0,0,0,0,0,0.3434,0.3434,0.3444,0.3444,0.3444,0.3452,0.3452,0.3452,0.3428,0.3427,0.3427,0.3426,0.3458,0.346,0.3461,0,0,0,0,0,0,0,0,0,0,0,0,0,0.3438,0.3434,0.3444,0.3434,0.3434,0.3452,0.3452,0.3452,0.3428,0.3427,0.3426,0.3426,0.3458,0.346,0.3462,0.3493,0,0,0.3468,0.3469,0,0,0,0,0,0,0,0,0.3438,0.3438,0.3436,0.3435,0.3434,0.3439,0.346,0.3467,0.3429,0.3429,0.3426,0.3425,0.3456,0.3458,0.3459,0.3494,0.3496,0.3468,0.347,0.3471,0.3471,0,0,0,0,0,0,0,0.3438,0.3438,0.3445,0.3436,0.3435,0.3439,0.3438,0.3461,0.3447,0.3429,0.3427,0.3431,0.3456,0.3457,0.346,0.3496,0.3468,0.347,0.3471,0.3472,0.3653,0.3656,0,0,0,0,0,0,0.3439,0.3438,0.3445,0.3446,0.3436,0.344,0.3439,0.3437,0.3446,0.3446,0.3432,0.343,0.3454,0.3457,0.3461,0.3565,0.3471,0.3473,0.3474,0.365,0.3654,0.3658,0,0,0,0,0,0,0.3439,0.344,0.3445,0.3444,0.3445,0.3441,0.344,0.3438,0.3444,0.3448,0.3449,0.344,0.3453,0.3458,0.3501,0.3564,0.3473,0.3475,0.3645,0.3651,0.3656,0.3731,0,0,0,0,0,0,0.3439,0.344,0.3442,0.3443,0.3445,0.3464,0.3441,0.3439,0.3448,0.3446,0.3456,0.3457,0.3453,0.3498,0.3503,0.3565,0.3477,0.3641,0.3648,0.3654,0.3725,0.3739,0.3751,0,0,0,0,0,0.3438,0.3449,0.3442,0.3443,0.3447,0.3465,0.3466,0.3459,0.345,0.346,0.3474,0.3457,0.3544,0.3501,0.3507,0.3571,0.3638,0.3646,0.3654,0.3719,0.3736,0.3751,0,0,0,0,0,0,0.3445,0.3447,0.344,0.3449,0.3459,0.3461,0.3472,0.3469,0.3487,0.3486,0.3485,0.349,0.3561,0.3558,0.3511,0.3649,0.3596,0.3605,0.3644,0.366,0.3673,0.3685,0.3479,0,0,0,0,0,0.3448,0.3455,0.3459,0.3467,0.3474,0.3475,0.3482,0.348,0.3494,0.35,0.3506,0.3538,0.36,0.3618,0.3656,0.3714,0.3751,0.3768,0.3782,0.3792,0.381,0.3939,0.3965,0.3684,0.3684,0.3684,0,0,0.3451,0.3456,0.3457,0.347,0.3475,0.3505,0.3477,0.3494,0.3534,0.3504,0.3554,0.358,0.3628,0.3704,0.3737,0.3705,0.3891,0.3803,0.3811,0.3823,0.395,0.3977,0.4001,0.3689,0.3688,0.3687,0,0,0.3469,0.3468,0.3481,0.3498,0.3514,0.3527,0.3536,0.3545,0.3564,0.3616,0.3628,0.3689,0.3743,0.38,0.384,0.3952,0.3961,0.3967,0.4035,0.416,0.4184,0.4205,0.4274,0.4301,0.3967,0.3968,0.3968,0,0.3473,0.3485,0.349,0.3517,0.3538,0.3543,0.3575,0.3611,0.3634,0.3673,0.3645,0.3787,0.3805,0.3947,0.3981,0.3984,0.4034,0.3963,0.4176,0.4198,0.4219,0.4285,0.4314,0.3972,0.3972,0.3971,0.3971,0,0.3502,0.3517,0.3532,0.357,0.3604,0.3626,0.3678,0.3716,0.3739,0.3777,0.3897,0.3933,0.4018,0.4047,0.4044,0.4212,0.4192,0.418,0.4129,0.4252,0.4313,0.4342,0.3979,0.3977,0.3976,0.3975,0,0,0.3484,0.3537,0.3541,0.3564,0.3627,0.3655,0.3751,0.3834,0.3915,0.3958,0.4077,0.4172,0.4183,0.423,0.4247,0.4343,0.4513,0.4319,0.4323,0.4374,0.4765,0.4593,0.4607,0.4541,0.4547,0.4551,0.4743,0,0.3496,0.3542,0.3581,0.3645,0.3671,0.3733,0.3828,0.3918,0.4,0.4119,0.4203,0.4324,0.4262,0.4321,0.4406,0.4518,0.4596,0.4461,0.465,0.4655,0.4478,0.4637,0.4366,0.4501,0.4771,0.4776,0.4779,0,0.3501,0.3533,0.3582,0.3677,0.3699,0.3755,0.3905,0.3996,0.4181,0.4253,0.438,0.4455,0.4625,0.4546,0.4774,0.4694,0.4728,0.4782,0.4791,0.4625,0.4538,0.4428,0.4543,0.4472,0.4823,0.4819,0.4816,0,0.3458,0.3535,0.3569,0.3596,0.3711,0.3766,0.3851,0.4026,0.4143,0.436,0.4476,0.4653,0.4768,0.4885,0.4956,0.4905,0.5185,0.5132,0.4999,0.4985,0.4788,0.4746,0.4844,0.5276,0.5275,0.5275,0.5274,0,0.3437,0.3465,0.3546,0.3559,0.3653,0.3747,0.3886,0.4008,0.4217,0.4381,0.4537,0.4688,0.4863,0.502,0.5059,0.512,0.5269,0.5049,0.5048,0.4802,0.4761,0.4712,0.4673,0.5282,0.528,0.5279,0.5278,0,0.3373,0.3417,0.3466,0.3576,0.3624,0.3695,0.3898,0.4023,0.4211,0.4442,0.4531,0.4782,0.4977,0.5105,0.5307,0.5234,0.5179,0.5284,0.4948,0.49,0.4655,0.4628,0.4559,0.4439,0.5203,0.5201,0.5198,0,0.3336,0.3346,0.3461,0.3524,0.3571,0.3693,0.3808,0.4003,0.4148,0.4477,0.4595,0.4846,0.4976,0.519,0.5139,0.5191,0.509,0.4945,0.478,0.464,0.4614,0.4461,0.4355,0.4561,0.4553,0.4547,0.4543,0,0.328,0.3316,0.3371,0.3499,0.3605,0.3715,0.3877,0.3976,0.4225,0.4388,0.4587,0.4718,0.4883,0.4807,0.4853,0.4838,0.4698,0.4815,0.48,0.4228,0.3947,0.3827,0.4416,0.4489,0.4494,0.4498,0.4501,0.4503,0.3249,0.3286,0.3377,0.3486,0.3604,0.3697,0.3721,0.3891,0.4034,0.4193,0.4411,0.4458,0.4514,0.4515,0.4483,0.4261,0.4297,0.4118,0.4136,0.4025,0.3777,0.4207,0.4184,0.4187,0.419,0.4193,0.4195,0,0.3227,0.328,0.3378,0.3479,0.3534,0.362,0.3744,0.3717,0.3761,0.392,0.3998,0.3992,0.3922,0.395,0.3801,0.3636,0.3471,0.3564,0.3334,0.3295,0.3807,0.3645,0.3345,0.3346,0.3346,0.3346,0.3346,0.3346,0.3229,0.3288,0.3327,0.337,0.3417,0.339,0.3388,0.3364,0.34,0.3353,0.3306,0.3381,0.3581,0.3555,0.3382,0.3281,0.311,0.2881,0.3,0.3408,0.3462,0.3514,0.3357,0.3001,0.3001,0.23,0.2295,0.2291]},{"header":{"parameterUnit":"m.s-1","parameterCategory":2,"la1":30.2991,"la2":30.254,"lo1":-89.0895,"lo2":-89.0444,"dy":0.0017,"dx":0.0017,"nx":28,"ny":28,"refTime":"2025-05-26T03:00:00:Z","depth":"0","parameterNumber":3,"parameterNumberName":"V-component_of_CURRENTS"},"data":[0,0,0,0,0,0,0,0,0,0,0,0,0,0,0,0,0,0,0,0,0,0,0,0,0,0,0,0,0,0,0,0,0,0,0,0,0,0,0,0,0,0,0,0,0,0,0,0,0,0,0,0,0,0,0,0,0,0,0.0273,0.0272,0,0.0219,0.0218,0.0217,0.0178,0.0177,0.0177,0.0177,0.0135,0.0134,0.0133,0,0,0,0,0,0,0,0,0,0,0,0,0,0.0292,0.0292,0.0273,0.0272,0.0272,0.0219,0.0218,0.0217,0.0178,0.0177,0.0177,0.0177,0.0135,0.0134,0.0133,0,0,0,0,0,0,0,0,0,0,0,0,0,0.0264,0.0292,0.0273,0.0246,0.0244,0.0219,0.0218,0.0217,0.0178,0.0177,0.0177,0.0177,0.0136,0.0134,0.0133,0.0132,0,0,0.0129,0.0128,0,0,0,0,0,0,0,0,0.0266,0.0264,0.0251,0.0248,0.0245,0.0205,0.0209,0.0189,0.0178,0.0202,0.0177,0.0176,0.0161,0.0157,0.0146,0.013,0.0128,0.0129,0.0128,0.0128,0.0127,0,0,0,0,0,0,0,0.0268,0.0265,0.025,0.025,0.0247,0.022,0.0216,0.0205,0.0183,0.0199,0.0197,0.0193,0.0159,0.0148,0.0145,0.0128,0.0129,0.0128,0.0127,0.0126,0.0143,0.0144,0,0,0,0,0,0,0.028,0.0268,0.0252,0.0249,0.0256,0.022,0.0216,0.0218,0.0183,0.0178,0.0193,0.0191,0.015,0.0147,0.0143,0.0178,0.0128,0.0126,0.0126,0.0142,0.0143,0.0144,0,0,0,0,0,0,0.0281,0.0279,0.0254,0.0257,0.0252,0.0221,0.0223,0.0217,0.0209,0.0178,0.0173,0.0192,0.015,0.0145,0.0145,0.0175,0.0126,0.0125,0.014,0.0142,0.0144,0.0224,0,0,0,0,0,0,0.0282,0.028,0.0285,0.0258,0.0253,0.0251,0.0223,0.0216,0.0207,0.0204,0.0175,0.0171,0.0149,0.0147,0.0144,0.0172,0.0123,0.0139,0.0141,0.0143,0.022,0.0228,0.0236,0,0,0,0,0,0.0283,0.0296,0.0285,0.0283,0.0261,0.0251,0.0246,0.0221,0.0208,0.0211,0.0194,0.0172,0.016,0.0147,0.0143,0.0172,0.0137,0.014,0.0143,0.0216,0.0227,0.0236,0,0,0,0,0,0,0.0305,0.0293,0.028,0.0288,0.0275,0.0245,0.0245,0.0228,0.0215,0.0213,0.0183,0.0178,0.019,0.0169,0.0156,0.0184,0.0147,0.0149,0.0204,0.0214,0.0222,0.0255,0.0122,0,0,0,0,0,0.0313,0.0321,0.0301,0.0307,0.0303,0.0275,0.0267,0.0252,0.0236,0.0229,0.021,0.0197,0.0198,0.0196,0.0187,0.0199,0.0185,0.0216,0.0224,0.0231,0.0256,0.0263,0.0274,0.0154,0.0154,0.0153,0,0,0.0322,0.0317,0.032,0.0312,0.0298,0.0311,0.0269,0.0265,0.0284,0.0228,0.0246,0.0222,0.0207,0.0223,0.0227,0.0209,0.0253,0.0234,0.0241,0.0262,0.0267,0.0279,0.0289,0.0155,0.0155,0.0155,0,0,0.0352,0.0342,0.036,0.0356,0.0344,0.0335,0.0339,0.0316,0.0313,0.0323,0.0295,0.0292,0.0283,0.0282,0.0282,0.0329,0.0295,0.0322,0.0392,0.0398,0.0408,0.0417,0.0396,0.0402,0.0328,0.0328,0.0328,0,0.0363,0.0387,0.0363,0.0382,0.0393,0.0354,0.0384,0.0379,0.036,0.0378,0.0343,0.035,0.032,0.0364,0.0373,0.035,0.0338,0.0355,0.0409,0.0418,0.0426,0.0402,0.0408,0.0332,0.0331,0.0331,0.0331,0,0.0409,0.0428,0.0439,0.0459,0.0467,0.0483,0.0479,0.049,0.0481,0.0478,0.0507,0.0464,0.0477,0.0459,0.0428,0.0476,0.0443,0.0417,0.0387,0.0443,0.0414,0.0419,0.0338,0.0336,0.0335,0.0334,0,0,0.0442,0.0468,0.0475,0.0507,0.0513,0.0534,0.0572,0.0608,0.0661,0.0625,0.0695,0.0659,0.0632,0.063,0.0587,0.058,0.0598,0.0526,0.0524,0.0509,0.0597,0.0525,0.0522,0.0582,0.0584,0.0585,0.0548,0,0.0489,0.055,0.0551,0.0625,0.066,0.0656,0.0709,0.0736,0.0751,0.0805,0.0767,0.0809,0.0701,0.0719,0.0691,0.0643,0.0618,0.0609,0.0543,0.0541,0.0474,0.0529,0.0531,0.0495,0.0553,0.0553,0.0554,0,0.0542,0.058,0.0653,0.0733,0.0752,0.0792,0.0888,0.0934,0.0987,0.1002,0.1015,0.0991,0.0989,0.0889,0.0814,0.0815,0.0714,0.065,0.0646,0.0561,0.0479,0.0452,0.0501,0.0376,0.0561,0.056,0.056,0,0.0594,0.0664,0.0732,0.0752,0.0824,0.0873,0.0928,0.0994,0.1079,0.1143,0.1217,0.1174,0.1192,0.1076,0.092,0.0882,0.083,0.0761,0.0591,0.0583,0.0565,0.0553,0.0494,0.0702,0.0702,0.0702,0.0702,0,0.0653,0.0711,0.0764,0.0801,0.0921,0.0948,0.1087,0.1135,0.1244,0.1389,0.133,0.1427,0.1243,0.1185,0.1004,0.0824,0.0891,0.0623,0.0583,0.0588,0.0579,0.0451,0.034,0.07,0.0701,0.0701,0.0701,0,0.07,0.0724,0.0817,0.0903,0.0944,0.1037,0.1201,0.1323,0.1397,0.1589,0.1632,0.1636,0.1555,0.1345,0.1164,0.0949,0.0674,0.0685,0.0685,0.0645,0.0338,0.023,0.0088,0.0003,0.0497,0.0495,0.0494,0,0.0729,0.0773,0.0892,0.0976,0.102,0.1158,0.1283,0.1391,0.1542,0.1736,0.1859,0.1829,0.1839,0.1521,0.1144,0.0814,0.0638,0.0574,0.0487,0.0343,0.0194,0.0119,0.0053,0.0487,0.0486,0.0484,0.0484,0,0.079,0.0824,0.0906,0.1075,0.121,0.138,0.1561,0.1698,0.1872,0.2031,0.2219,0.2241,0.1924,0.159,0.11,0.0855,0.0459,0.0535,0.0412,0.0207,0.01,-0.0007,0.0467,0.0473,0.0474,0.0475,0.0475,0.0476,0.0842,0.0919,0.1033,0.12,0.1367,0.1593,0.1751,0.1966,0.2209,0.2455,0.2455,0.2492,0.2003,0.1331,0.0993,0.038,0.0345,0.0193,0.0081,0.0027,-0.0074,0.0354,0.0292,0.0292,0.0293,0.0293,0.0293,0,0.0919,0.101,0.1165,0.1373,0.1574,0.1646,0.1943,0.212,0.2411,0.2581,0.2706,0.246,0.1874,0.1273,0.044,0.003,-0.0114,-0.018,-0.0252,-0.0296,0.013,0.0114,-0.0019,-0.0019,-0.0019,-0.0019,-0.0019,-0.0019,0.0968,0.1113,0.1192,0.1506,0.1668,0.1945,0.2117,0.2372,0.2538,0.2732,0.272,0.2682,0.2238,0.0816,-0.0084,-0.0299,-0.0554,-0.065,-0.0774,-0.045,-0.0421,-0.0394,-0.0429,-0.0674,-0.0675,-0.1117,-0.1122,-0.1126]}],[{"header":{"parameterUnit":"m.s-1","parameterCategory":2,"la1":30.2991,"la2":30.254,"lo1":-89.0895,"lo2":-89.0444,"dy":0.0017,"dx":0.0017,"nx":28,"ny":28,"refTime":"2025-05-26T03:00:00:Z","depth":"2","parameterNumber":2,"parameterNumberName":"U-component_of_CURRENTS"},"data":[0,0,0,0,0,0,0,0,0,0,0,0,0,0,0,0,0,0,0,0,0,0,0,0,0,0,0,0,0,0,0,0,0,0,0,0,0,0,0,0,0,0,0,0,0,0,0,0,0,0,0,0,0,0,0,0,0,0,0.3221,0.3221,0,0.3229,0.3228,0.3228,0.3216,0.3216,0.3216,0.3215,0.3235,0.3235,0.3236,0,0,0,0,0,0,0,0,0,0,0,0,0,0.3211,0.3211,0.3221,0.3221,0.3221,0.3229,0.3228,0.3228,0.3216,0.3216,0.3216,0.3215,0.3234,0.3235,0.3236,0,0,0,0,0,0,0,0,0,0,0,0,0,0.3215,0.3211,0.3221,0.3217,0.3217,0.3229,0.3228,0.3228,0.3216,0.3216,0.3216,0.3215,0.3234,0.3235,0.3236,0.325,0,0,0.324,0.324,0,0,0,0,0,0,0,0,0.3215,0.3215,0.3218,0.3218,0.3218,0.3223,0.3232,0.3237,0.3216,0.3215,0.3215,0.3215,0.3233,0.3234,0.3234,0.3251,0.3252,0.324,0.324,0.3241,0.3241,0,0,0,0,0,0,0,0.3214,0.3215,0.3222,0.3218,0.3218,0.3221,0.3221,0.3233,0.3225,0.3215,0.3214,0.3219,0.3233,0.3233,0.3234,0.3252,0.324,0.3241,0.3241,0.3242,0.337,0.3372,0,0,0,0,0,0,0.3217,0.3214,0.3222,0.3222,0.3218,0.3222,0.3222,0.322,0.3224,0.3225,0.3219,0.3218,0.3231,0.3233,0.3235,0.3332,0.3241,0.3242,0.3242,0.3367,0.337,0.3373,0,0,0,0,0,0,0.3217,0.3217,0.3221,0.322,0.3221,0.3223,0.3221,0.322,0.3232,0.3228,0.3228,0.3232,0.3231,0.3233,0.3263,0.333,0.3242,0.3243,0.3364,0.3368,0.3372,0.3476,0,0,0,0,0,0,0.3216,0.3217,0.3221,0.322,0.3222,0.3239,0.3221,0.3221,0.3235,0.3234,0.3239,0.324,0.3231,0.3262,0.3265,0.333,0.3244,0.336,0.3366,0.337,0.3469,0.3483,0.3495,0,0,0,0,0,0.3216,0.3225,0.3221,0.3223,0.3226,0.3241,0.3242,0.324,0.3236,0.3247,0.3255,0.324,0.3297,0.3264,0.3267,0.3334,0.3358,0.3364,0.337,0.3463,0.348,0.3495,0,0,0,0,0,0,0.3224,0.3225,0.3221,0.323,0.324,0.3239,0.3252,0.3251,0.3265,0.3268,0.3261,0.3263,0.3312,0.331,0.3274,0.3388,0.3332,0.3339,0.3402,0.3418,0.3431,0.3419,0.3245,0,0,0,0,0,0.3228,0.3234,0.3238,0.3247,0.3254,0.3256,0.3263,0.3264,0.3274,0.3279,0.3282,0.3302,0.334,0.3365,0.3375,0.3436,0.3449,0.3487,0.35,0.3511,0.3506,0.3604,0.3625,0.3394,0.3393,0.3393,0,0,0.3232,0.3236,0.3238,0.3249,0.3255,0.3278,0.3259,0.3278,0.3311,0.3281,0.3323,0.3333,0.336,0.3424,0.345,0.3434,0.3586,0.3519,0.3528,0.3516,0.3612,0.3635,0.3655,0.3398,0.3397,0.3396,0,0,0.3249,0.325,0.3263,0.3277,0.3294,0.3302,0.3313,0.3321,0.3341,0.3381,0.338,0.3424,0.3467,0.3505,0.3534,0.3627,0.3637,0.3651,0.3727,0.3824,0.3844,0.3861,0.3912,0.3933,0.3677,0.3677,0.3677,0,0.3256,0.3263,0.3271,0.3294,0.331,0.3318,0.3343,0.3374,0.3393,0.3424,0.3407,0.3502,0.3508,0.3622,0.3655,0.3657,0.3702,0.3665,0.3842,0.3859,0.3875,0.3922,0.3944,0.3683,0.3682,0.3681,0.3681,0,0.3279,0.3292,0.3306,0.3335,0.3363,0.3381,0.3424,0.3461,0.3483,0.3509,0.3601,0.3623,0.3686,0.3715,0.3712,0.3851,0.3842,0.3832,0.38,0.3905,0.3948,0.3969,0.3691,0.3689,0.3687,0.3686,0,0,0.3267,0.3309,0.3314,0.3334,0.338,0.3405,0.3483,0.3546,0.3613,0.3652,0.3753,0.3811,0.3825,0.3858,0.3884,0.3968,0.4112,0.3961,0.3964,0.4006,0.4319,0.4165,0.4172,0.4156,0.416,0.4164,0.4304,0,0.3275,0.3312,0.3342,0.3394,0.3413,0.3466,0.3539,0.3612,0.3678,0.378,0.3849,0.3944,0.389,0.3954,0.4026,0.4099,0.4172,0.4072,0.4213,0.4215,0.4063,0.4193,0.3826,0.3908,0.4324,0.4328,0.433,0,0.3279,0.3303,0.334,0.3417,0.3436,0.3483,0.3605,0.3679,0.383,0.3892,0.4,0.406,0.4197,0.4142,0.4303,0.4255,0.4284,0.4322,0.4329,0.4156,0.41,0.3871,0.393,0.4364,0.4362,0.4359,0.4357,0,0.3242,0.3306,0.333,0.3352,0.3443,0.3496,0.3568,0.3704,0.3796,0.399,0.4092,0.4226,0.4332,0.4411,0.4453,0.442,0.4618,0.4582,0.4461,0.445,0.4143,0.4097,0.4687,0.4687,0.4686,0.4686,0.4686,0,0.322,0.3244,0.3317,0.3328,0.3402,0.3486,0.3605,0.3702,0.3877,0.4001,0.4151,0.4274,0.4413,0.4528,0.4539,0.4559,0.4687,0.4488,0.4491,0.4167,0.4124,0.4511,0.4488,0.4691,0.469,0.4689,0.4688,0,0.3166,0.3202,0.3243,0.3338,0.3377,0.3441,0.3615,0.3706,0.3883,0.4069,0.4152,0.4363,0.4505,0.4598,0.4736,0.4657,0.4702,0.4664,0.4248,0.4197,0.4447,0.4429,0.4572,0.4568,0.4565,0.4562,0.456,0,0.3134,0.3142,0.3237,0.329,0.3334,0.3447,0.3524,0.3686,0.3795,0.4092,0.4175,0.4394,0.446,0.4597,0.4556,0.4563,0.4658,0.42,0.4045,0.4455,0.4444,0.4431,0.4418,0.3692,0.3683,0.3676,0.367,0,0.3079,0.3112,0.3148,0.3245,0.3321,0.3411,0.3541,0.3608,0.3815,0.3941,0.4103,0.4184,0.4332,0.4161,0.4175,0.4122,0.4171,0.4043,0.4637,0.3761,0.3632,0.3619,0.3634,0.3602,0.3609,0.3614,0.3618,0.362,0.3041,0.3059,0.3113,0.3198,0.3279,0.3336,0.3351,0.346,0.3534,0.3654,0.3859,0.3838,0.3893,0.3712,0.3598,0.3521,0.381,0.3613,0.3634,0.3664,0.352,0.3391,0.3287,0.3292,0.3296,0.33,0.3303,0,0.2989,0.302,0.3085,0.3134,0.3156,0.3253,0.3324,0.3272,0.3235,0.3357,0.341,0.3136,0.3003,0.3071,0.2843,0.2823,0.278,0.2698,0.2614,0.2684,0.2745,0.2551,0.2064,0.206,0.2056,0.2052,0,0,0.2969,0.2974,0.2987,0.2974,0.303,0.2961,0.2961,0.2872,0.2876,0.2757,0.2701,0.2912,0.2989,0.2511,0.2437,0.221,0.2429,0.2113,0.3113,0.3086,0.3143,0.3285,0.3066,0,0,0,0,0]},{"header":{"parameterUnit":"m.s-1","parameterCategory":2,"la1":30.2991,"la2":30.254,"lo1":-89.0895,"lo2":-89.0444,"dy":0.0017,"dx":0.0017,"nx":28,"ny":28,"refTime":"2025-05-26T03:00:00:Z","depth":"2","parameterNumber":3,"parameterNumberName":"V-component_of_CURRENTS"},"data":[0,0,0,0,0,0,0,0,0,0,0,0,0,0,0,0,0,0,0,0,0,0,0,0,0,0,0,0,0,0,0,0,0,0,0,0,0,0,0,0,0,0,0,0,0,0,0,0,0,0,0,0,0,0,0,0,0,0,0.0169,0.0168,0,0.0118,0.0117,0.0116,0.0081,0.0081,0.0081,0.0081,0.0034,0.0033,0.0032,0,0,0,0,0,0,0,0,0,0,0,0,0,0.0188,0.0188,0.0169,0.0168,0.0168,0.0118,0.0117,0.0116,0.0081,0.0081,0.0081,0.0081,0.0035,0.0033,0.0032,0,0,0,0,0,0,0,0,0,0,0,0,0,0.0162,0.0188,0.0169,0.0145,0.0143,0.0118,0.0117,0.0116,0.0081,0.0081,0.0081,0.0081,0.0035,0.0033,0.0032,0.0026,0,0,0.0027,0.0026,0,0,0,0,0,0,0,0,0.0163,0.0161,0.0149,0.0147,0.0144,0.0107,0.0106,0.0086,0.0082,0.0103,0.0081,0.0081,0.006,0.0056,0.0045,0.0024,0.0022,0.0027,0.0026,0.0025,0.0024,0,0,0,0,0,0,0,0.0165,0.0162,0.0147,0.0149,0.0146,0.0121,0.0117,0.0102,0.0083,0.0102,0.0099,0.0095,0.0058,0.0047,0.0044,0.0021,0.0027,0.0025,0.0024,0.0023,0.0018,0.0019,0,0,0,0,0,0,0.0177,0.0165,0.0149,0.0146,0.0155,0.0121,0.0117,0.0118,0.0083,0.0077,0.0096,0.0094,0.005,0.0046,0.0042,0.0069,0.0025,0.0023,0.0022,0.0018,0.0019,0.002,0,0,0,0,0,0,0.0177,0.0176,0.0151,0.0154,0.015,0.0121,0.0123,0.0117,0.0111,0.0078,0.0073,0.0096,0.0049,0.0044,0.004,0.0065,0.0023,0.0021,0.0017,0.0018,0.0019,0.0099,0,0,0,0,0,0,0.0178,0.0177,0.0181,0.0156,0.015,0.0147,0.0123,0.0116,0.0109,0.0106,0.0077,0.0071,0.0049,0.0043,0.0039,0.0062,0.002,0.0015,0.0017,0.0019,0.0095,0.0103,0.0109,0,0,0,0,0,0.0179,0.0191,0.0182,0.018,0.0158,0.0148,0.0143,0.012,0.0109,0.0112,0.0094,0.0073,0.005,0.0042,0.0037,0.0061,0.0015,0.0017,0.0019,0.0092,0.0101,0.0109,0,0,0,0,0,0,0.02,0.0188,0.0177,0.0184,0.0171,0.0143,0.0143,0.0127,0.0114,0.0112,0.0081,0.0076,0.0078,0.0059,0.0051,0.0064,0.003,0.0031,0.0088,0.0096,0.0103,0.0122,0.0018,0,0,0,0,0,0.0208,0.0215,0.0195,0.0201,0.0197,0.0171,0.0164,0.015,0.0134,0.0127,0.0107,0.009,0.0081,0.0081,0.0062,0.0072,0.0046,0.0084,0.0091,0.0097,0.0109,0.0099,0.0106,0.0026,0.0026,0.0026,0,0,0.0216,0.0211,0.0214,0.0206,0.0193,0.0202,0.0166,0.0162,0.0177,0.0125,0.0137,0.0109,0.0087,0.0095,0.0096,0.0085,0.0103,0.01,0.0106,0.0114,0.0101,0.0109,0.0116,0.0027,0.0027,0.0027,0,0,0.0243,0.0234,0.0251,0.0247,0.0236,0.0225,0.0229,0.0207,0.0204,0.0208,0.0177,0.0165,0.0152,0.0142,0.0137,0.0172,0.0135,0.0169,0.0229,0.0219,0.0226,0.0231,0.0194,0.0196,0.0181,0.0181,0.0181,0,0.0254,0.0274,0.0253,0.027,0.0278,0.0243,0.0268,0.0261,0.0241,0.0252,0.0224,0.0209,0.0177,0.0202,0.021,0.019,0.0171,0.02,0.0229,0.0234,0.0239,0.02,0.02,0.0185,0.0184,0.0184,0.0184,0,0.0295,0.0311,0.0322,0.0337,0.0343,0.0356,0.0349,0.0356,0.0346,0.0337,0.0347,0.0302,0.0299,0.0284,0.0257,0.0281,0.0251,0.0233,0.0211,0.0252,0.0207,0.0207,0.0191,0.0189,0.0188,0.0187,0,0,0.0327,0.0347,0.0354,0.0382,0.0383,0.0401,0.0428,0.0451,0.049,0.0453,0.05,0.0455,0.0425,0.0416,0.0377,0.0363,0.0357,0.032,0.0317,0.0288,0.0322,0.0277,0.0271,0.0352,0.0353,0.0353,0.0274,0,0.0369,0.0423,0.0421,0.0484,0.0515,0.0506,0.0546,0.0561,0.0564,0.0597,0.0551,0.0575,0.048,0.0494,0.0457,0.0394,0.0363,0.038,0.0283,0.0279,0.0239,0.0272,0.029,0.0219,0.0273,0.0273,0.0272,0,0.0418,0.0451,0.0514,0.058,0.0596,0.0628,0.07,0.0736,0.076,0.0765,0.0758,0.0724,0.0698,0.0621,0.051,0.0529,0.0431,0.0364,0.0359,0.0293,0.0234,0.0189,0.0216,0.0271,0.0271,0.0271,0.0271,0,0.0468,0.0527,0.0587,0.0604,0.066,0.0702,0.0747,0.0786,0.0854,0.0887,0.0942,0.0869,0.0875,0.0744,0.058,0.0559,0.0456,0.0408,0.0266,0.026,0.0243,0.0235,0.033,0.033,0.033,0.0331,0.0331,0,0.0523,0.0575,0.0619,0.0652,0.0754,0.0775,0.0891,0.0921,0.1,0.1111,0.1042,0.1099,0.0913,0.0827,0.0642,0.0454,0.0496,0.0282,0.0247,0.0268,0.0264,0.0285,0.0281,0.0328,0.0328,0.0329,0.0329,0,0.057,0.0589,0.0671,0.0743,0.0777,0.086,0.1001,0.1097,0.1153,0.13,0.1332,0.129,0.1173,0.0962,0.0754,0.0558,0.0371,0.029,0.0311,0.0279,0.0158,0.0159,0.0123,0.0121,0.0119,0.0118,0.0116,0,0.0598,0.0638,0.0741,0.0816,0.0854,0.0979,0.108,0.1164,0.1284,0.1418,0.1507,0.1445,0.1398,0.1054,0.0732,0.0409,0.0365,0.0195,0.0147,0.0173,0.0142,0.0145,0.0148,0.0145,0.0144,0.0143,0.0143,0,0.0655,0.0686,0.0756,0.0903,0.1016,0.1167,0.132,0.1433,0.1566,0.167,0.1782,0.1751,0.145,0.1118,0.0676,0.0448,0.0243,0.0168,0.022,0.0195,0.0188,0.0159,0.0162,0.0136,0.0137,0.0138,0.0138,0.0138,0.0702,0.0766,0.0861,0.1009,0.115,0.1345,0.1486,0.164,0.1815,0.1985,0.195,0.1894,0.1539,0.0959,0.0584,0.0197,0.0217,0.0049,0.0054,0.0059,0.0077,0.0067,-0.0005,-0.0006,-0.0006,-0.0006,-0.0006,0,0.0764,0.0841,0.0975,0.1149,0.1319,0.1394,0.1642,0.1773,0.1964,0.207,0.2124,0.1761,0.1386,0.0981,0.0415,0.0063,0.0041,-0.007,-0.0014,-0.0005,0.0003,0.0019,-0.008,-0.0081,-0.0082,-0.0083,0,0,0.0802,0.0919,0.0985,0.1251,0.1404,0.1634,0.1789,0.1951,0.206,0.2122,0.2081,0.2005,0.1504,0.1072,0.0603,0.0269,0.0209,0.019,0.0287,0.0419,0.0431,0.0107,0.0146,0,0,0,0,0]}],[{"header":{"parameterUnit":"m.s-1","parameterCategory":2,"la1":30.2991,"la2":30.254,"lo1":-89.0895,"lo2":-89.0444,"dy":0.0017,"dx":0.0017,"nx":28,"ny":28,"refTime":"2025-05-26T03:00:00:Z","depth":"4","parameterNumber":2,"parameterNumberName":"U-component_of_CURRENTS"},"data":[0,0,0,0,0,0,0,0,0,0,0,0,0,0,0,0,0,0,0,0,0,0,0,0,0,0,0,0,0,0,0,0,0,0,0,0,0,0,0,0,0,0,0,0,0,0,0,0,0,0,0,0,0,0,0,0,0,0,0.2079,0.208,0,0.2138,0.2138,0.2139,0.2199,0.22,0.2201,0.2202,0.2249,0.225,0.225,0,0,0,0,0,0,0,0,0,0,0,0,0,0.2016,0.2017,0.2079,0.208,0.2081,0.2137,0.2138,0.2139,0.2199,0.22,0.2201,0.2203,0.2249,0.225,0.225,0,0,0,0,0,0,0,0,0,0,0,0,0,0.2054,0.2017,0.2079,0.2119,0.2124,0.2137,0.2138,0.2139,0.2199,0.22,0.2202,0.2203,0.2249,0.225,0.225,0.2223,0,0,0.2252,0.2252,0,0,0,0,0,0,0,0,0.2052,0.2056,0.2113,0.2117,0.2122,0.2164,0.2133,0.2167,0.2198,0.2168,0.2202,0.2204,0.222,0.2223,0.2228,0.2225,0.2227,0.2252,0.2252,0.2252,0.2252,0,0,0,0,0,0,0,0.2049,0.2054,0.21,0.2113,0.2119,0.2133,0.214,0.214,0.2183,0.2171,0.2176,0.2185,0.2222,0.2227,0.223,0.2228,0.2252,0.2252,0.2252,0.2253,0.2342,0.2344,0,0,0,0,0,0,0.2044,0.2051,0.2099,0.2102,0.2092,0.2133,0.2141,0.2147,0.2184,0.2191,0.2184,0.2188,0.2226,0.2229,0.2231,0.232,0.2252,0.2253,0.2253,0.234,0.2342,0.2344,0,0,0,0,0,0,0.2042,0.2048,0.2096,0.208,0.2087,0.2133,0.214,0.2148,0.2199,0.2194,0.2201,0.2232,0.2227,0.2231,0.2275,0.2318,0.2253,0.2253,0.2337,0.234,0.2343,0.2421,0,0,0,0,0,0,0.204,0.2046,0.2072,0.2079,0.2088,0.2134,0.2139,0.2148,0.22,0.2207,0.2236,0.224,0.2229,0.2274,0.2275,0.2317,0.2254,0.2334,0.2339,0.2342,0.2416,0.2426,0.2436,0,0,0,0,0,0.2038,0.2059,0.2073,0.208,0.2114,0.2135,0.2142,0.2177,0.2201,0.2228,0.2255,0.2241,0.23,0.2276,0.2277,0.232,0.2333,0.2337,0.2342,0.2411,0.2424,0.2435,0,0,0,0,0,0,0.2049,0.2067,0.2083,0.2112,0.2137,0.2147,0.2182,0.2201,0.2243,0.2265,0.226,0.2265,0.2321,0.231,0.2284,0.2359,0.2317,0.2322,0.237,0.2382,0.2391,0.2389,0.2254,0,0,0,0,0,0.206,0.2085,0.21,0.213,0.2146,0.2173,0.2196,0.2219,0.2244,0.2267,0.2287,0.2312,0.2331,0.2351,0.2362,0.2398,0.2402,0.243,0.244,0.2448,0.2449,0.2503,0.2518,0.236,0.236,0.236,0,0,0.2074,0.2089,0.2106,0.2136,0.2161,0.2186,0.2192,0.2239,0.227,0.2262,0.2329,0.2346,0.2349,0.2394,0.2418,0.2398,0.2498,0.2454,0.2461,0.2457,0.2509,0.2525,0.2538,0.2363,0.2362,0.2362,0,0,0.2098,0.2128,0.2154,0.2178,0.2222,0.2231,0.2254,0.229,0.2324,0.2374,0.2384,0.2429,0.246,0.2472,0.2478,0.2548,0.2547,0.2566,0.2616,0.2669,0.2683,0.2694,0.2728,0.2742,0.2573,0.2573,0.2573,0,0.2121,0.2143,0.2168,0.2197,0.2219,0.2255,0.2282,0.2317,0.2368,0.2397,0.2411,0.2483,0.2491,0.2537,0.2571,0.2569,0.2599,0.2569,0.2682,0.2694,0.2704,0.2735,0.275,0.2577,0.2577,0.2577,0.2576,0,0.2144,0.2182,0.2202,0.2244,0.2274,0.2306,0.2344,0.2394,0.2439,0.2469,0.2545,0.2565,0.2608,0.2626,0.2622,0.2705,0.2702,0.2686,0.265,0.2725,0.2753,0.2767,0.2584,0.2582,0.2581,0.258,0,0,0.2136,0.2203,0.2217,0.2239,0.2299,0.2316,0.2383,0.2432,0.2482,0.255,0.2615,0.2665,0.2699,0.2709,0.2722,0.2771,0.2876,0.2776,0.2777,0.2805,0.3002,0.2799,0.2794,0.2896,0.2899,0.2901,0.2994,0,0.2147,0.2196,0.2231,0.2283,0.2303,0.2357,0.2405,0.2467,0.2528,0.2605,0.2659,0.2728,0.2724,0.2769,0.282,0.2863,0.2916,0.2852,0.2928,0.2929,0.2737,0.2804,0.291,0.3004,0.3007,0.3009,0.3011,0,0.2145,0.2177,0.2228,0.2285,0.2303,0.2348,0.2425,0.248,0.259,0.265,0.2738,0.2786,0.288,0.2869,0.2982,0.2952,0.2991,0.3014,0.3018,0.2806,0.2751,0.2912,0.3035,0.3033,0.3031,0.303,0.3028,0,0.2094,0.2168,0.2204,0.2228,0.2306,0.2351,0.2403,0.2502,0.2561,0.2703,0.2772,0.2871,0.295,0.3014,0.3067,0.3054,0.3177,0.3156,0.3004,0.299,0.311,0.3097,0.3239,0.3238,0.3238,0.3238,0.3238,0,0.2057,0.2093,0.2193,0.2213,0.2255,0.2335,0.2406,0.2479,0.261,0.268,0.2807,0.2872,0.3,0.3074,0.3106,0.3085,0.3212,0.3016,0.3001,0.3142,0.3131,0.312,0.3105,0.3241,0.3241,0.324,0.3239,0,0.1988,0.2058,0.2102,0.2201,0.2233,0.2273,0.2398,0.2441,0.2597,0.2703,0.2763,0.2921,0.3017,0.3096,0.3202,0.3113,0.3123,0.3086,0.3234,0.3225,0.2895,0.2884,0.2924,0.2917,0.2912,0.2908,0.2904,0,0.1947,0.1971,0.208,0.209,0.214,0.2218,0.2255,0.2417,0.2474,0.2697,0.2728,0.2894,0.2974,0.2954,0.3056,0.3083,0.3051,0.3018,0.2946,0.2882,0.2865,0.2862,0.2857,0.2895,0.2894,0.2892,0.2891,0,0.1863,0.1932,0.196,0.1992,0.2036,0.207,0.2156,0.2194,0.2381,0.2555,0.2632,0.2685,0.2784,0.2841,0.2876,0.2891,0.3011,0.2962,0.2972,0.2904,0.2848,0.2835,0.2838,0.2872,0.2875,0.2877,0.2878,0,0.1802,0.1796,0.1849,0.1854,0.19,0.1895,0.1961,0.2029,0.2123,0.2386,0.2407,0.2591,0.2759,0.2744,0.2779,0.2769,0.2735,0.2624,0.2652,0.2674,0.2544,0.2432,0.232,0,0,0,0,0,0.1721,0.1695,0.1692,0.1688,0.173,0.1759,0.187,0.1952,0.2161,0.2153,0.228,0.2364,0.2431,0.2525,0.2469,0.2665,0.2735,0.2583,0.2618,0.2769,0.279,0.2658,0,0,0,0,0,0,0.1659,0.1664,0.1647,0.1557,0.1524,0.1554,0.1619,0.1749,0.1763,0.199,0.2045,0.2211,0.2317,0.2449,0.2425,0.245,0.2418,0.2706,0.2699,0.2756,0.2776,0.2793,0.2665,0,0,0,0,0]},{"header":{"parameterUnit":"m.s-1","parameterCategory":2,"la1":30.2991,"la2":30.254,"lo1":-89.0895,"lo2":-89.0444,"dy":0.0017,"dx":0.0017,"nx":28,"ny":28,"refTime":"2025-05-26T03:00:00:Z","depth":"4","parameterNumber":3,"parameterNumberName":"V-component_of_CURRENTS"},"data":[0,0,0,0,0,0,0,0,0,0,0,0,0,0,0,0,0,0,0,0,0,0,0,0,0,0,0,0,0,0,0,0,0,0,0,0,0,0,0,0,0,0,0,0,0,0,0,0,0,0,0,0,0,0,0,0,0,0,0.0081,0.0081,0,0.0049,0.0049,0.0048,0.0026,0.0026,0.0026,0.0026,-0.0008,-0.0009,-0.001,0,0,0,0,0,0,0,0,0,0,0,0,0,0.0092,0.0092,0.0081,0.0081,0.0081,0.0049,0.0049,0.0048,0.0026,0.0026,0.0026,0.0026,-0.0008,-0.0009,-0.001,0,0,0,0,0,0,0,0,0,0,0,0,0,0.0075,0.0092,0.0081,0.0066,0.0065,0.0049,0.0049,0.0048,0.0026,0.0026,0.0026,0.0026,-0.0007,-0.0009,-0.001,-0.0015,0,0,-0.0013,-0.0014,0,0,0,0,0,0,0,0,0.0076,0.0075,0.0069,0.0067,0.0066,0.0042,0.004,0.0027,0.0026,0.004,0.0026,0.0026,0.0009,0.0007,-0.0,-0.0016,-0.0018,-0.0014,-0.0014,-0.0015,-0.0015,0,0,0,0,0,0,0,0.0078,0.0076,0.0068,0.0069,0.0067,0.0051,0.0048,0.0037,0.0025,0.0039,0.0038,0.0035,0.0008,0.0001,-0.0001,-0.0018,-0.0014,-0.0015,-0.0015,-0.0016,-0.003,-0.003,0,0,0,0,0,0,0.0085,0.0077,0.0069,0.0067,0.0072,0.0051,0.0048,0.0049,0.0025,0.0022,0.0035,0.0034,0.0003,0.0,-0.0002,0.0009,-0.0015,-0.0016,-0.0017,-0.0031,-0.003,-0.003,0,0,0,0,0,0,0.0085,0.0085,0.007,0.0072,0.0069,0.0051,0.0052,0.0049,0.0045,0.0023,0.0019,0.0036,0.0003,-0.0001,-0.0004,0.0007,-0.0017,-0.0018,-0.0031,-0.003,-0.003,0.0019,0,0,0,0,0,0,0.0086,0.0085,0.0089,0.0072,0.0069,0.0068,0.0052,0.0048,0.0044,0.0043,0.0022,0.0019,0.0003,-0.0002,-0.0005,0.0005,-0.0019,-0.0031,-0.0031,-0.003,0.0017,0.0022,0.0025,0,0,0,0,0,0.0086,0.0095,0.009,0.0088,0.0075,0.0069,0.0066,0.0051,0.0045,0.0047,0.0035,0.0019,0.0,-0.0002,-0.0006,0.0003,-0.0032,-0.0031,-0.003,0.0016,0.0021,0.0025,0,0,0,0,0,0,0.0099,0.0093,0.0087,0.0092,0.0084,0.0065,0.0066,0.0056,0.0048,0.0047,0.0026,0.0021,0.0021,0.0006,0.0004,0.0,-0.0019,-0.0019,0.0017,0.0022,0.0025,0.0039,-0.002,0,0,0,0,0,0.0105,0.0111,0.0099,0.0103,0.0101,0.0085,0.008,0.0072,0.0061,0.0057,0.0043,0.0029,0.002,0.0017,0.0004,0.0005,-0.0022,0.0007,0.0011,0.0014,0.0022,-0.0009,-0.0008,-0.0027,-0.0027,-0.0027,0,0,0.0111,0.0108,0.0111,0.0107,0.0099,0.0106,0.0082,0.008,0.0089,0.0055,0.0063,0.0042,0.0023,0.0023,0.0022,0.0013,0.0004,0.0015,0.0019,0.0025,-0.0008,-0.0006,-0.0005,-0.0027,-0.0027,-0.0027,0,0,0.0129,0.0124,0.0136,0.0134,0.0128,0.0121,0.0124,0.011,0.0107,0.011,0.0088,0.0074,0.0063,0.0049,0.0042,0.0059,0.0025,0.0056,0.0089,0.0058,0.006,0.0061,0.0023,0.002,0.0059,0.0059,0.006,0,0.0136,0.0151,0.0138,0.015,0.0157,0.0134,0.0151,0.0145,0.0133,0.0136,0.012,0.0097,0.0076,0.0077,0.0083,0.0068,0.0044,0.0074,0.0064,0.0064,0.0064,0.0025,0.0021,0.0062,0.0062,0.0061,0.0061,0,0.0163,0.0177,0.0184,0.0197,0.0201,0.0211,0.0205,0.0207,0.02,0.0191,0.0187,0.0151,0.014,0.0127,0.0112,0.0106,0.0086,0.0071,0.0053,0.0069,0.0027,0.0022,0.0065,0.0065,0.0064,0.0063,0,0,0.0182,0.0201,0.0206,0.0227,0.0229,0.0241,0.0256,0.0267,0.0288,0.0257,0.0273,0.024,0.0214,0.0204,0.0173,0.0144,0.0116,0.0115,0.0112,0.008,0.0044,0.0039,0.0032,0.0101,0.0101,0.01,0.0012,0,0.0211,0.025,0.0251,0.0295,0.0317,0.031,0.0334,0.0339,0.0336,0.0343,0.0296,0.0298,0.0246,0.0245,0.0205,0.0141,0.0107,0.0141,0.0031,0.0028,0.0024,0.0028,0.0099,0.0008,0.0007,0.0006,0.0005,0,0.0242,0.0266,0.0312,0.0358,0.0369,0.0392,0.0433,0.0455,0.0452,0.0449,0.0426,0.0387,0.0341,0.0297,0.0184,0.0209,0.0136,0.0077,0.0072,0.0049,0.0014,-0.0011,-0.0004,-0.0003,-0.0003,-0.0002,-0.0002,0,0.0271,0.0315,0.0359,0.0372,0.0412,0.044,0.047,0.0487,0.0528,0.0521,0.0536,0.0461,0.0438,0.0329,0.0197,0.0195,0.0066,0.0045,-0.0033,-0.0035,-0.0026,-0.0026,-0.003,-0.003,-0.0029,-0.0029,-0.0029,0,0.0303,0.0341,0.038,0.0404,0.0474,0.0488,0.0565,0.058,0.0618,0.0672,0.0599,0.0604,0.0448,0.0352,0.022,0.0076,0.0078,-0.0025,-0.0054,-0.0005,-0.0002,-0.0031,-0.003,-0.0033,-0.0032,-0.0031,-0.0031,0,0.0328,0.0348,0.0407,0.0462,0.049,0.0544,0.0645,0.0702,0.0723,0.0787,0.0791,0.0716,0.0591,0.0421,0.024,0.0122,-0.0026,-0.0076,-0.0014,-0.0039,-0.0114,-0.011,-0.017,-0.0171,-0.0171,-0.0172,-0.0172,0,0.0341,0.0371,0.0453,0.0504,0.0535,0.0623,0.0692,0.0752,0.0819,0.0853,0.0884,0.079,0.0713,0.0449,0.026,0.0003,-0.0032,-0.0121,-0.0116,-0.0104,-0.0127,-0.0121,-0.0116,-0.0173,-0.0174,-0.0174,-0.0174,0,0.037,0.0399,0.0449,0.0553,0.0634,0.0737,0.0837,0.0892,0.0962,0.0978,0.0966,0.0831,0.0692,0.0467,0.0269,0.0082,-0.0074,-0.013,-0.0129,-0.0125,-0.011,-0.013,-0.0124,-0.0176,-0.0176,-0.0176,-0.0176,0,0.0395,0.0436,0.0506,0.0603,0.0708,0.0819,0.0871,0.0947,0.1012,0.1043,0.103,0.0875,0.0784,0.0509,0.0322,0.014,0.0093,0.0019,0.001,0.0011,0.0085,0.0132,0.0119,0,0,0,0,0,0.0416,0.0469,0.0557,0.0664,0.077,0.0836,0.0956,0.1001,0.1057,0.1064,0.1056,0.0926,0.0663,0.0543,0.0364,0.0294,0.0048,0.0074,-0.0045,-0.019,-0.0187,-0.0132,0,0,0,0,0,0,0.0431,0.0507,0.0555,0.0697,0.0778,0.0906,0.0983,0.1024,0.103,0.1048,0.0914,0.0861,0.0605,0.0766,0.0353,0.0298,0.0193,-0.0044,-0.0048,-0.0192,-0.0189,-0.0187,-0.0129,0,0,0,0,0]}]]